TimeEST,TemperatureF,Dew PointF,Humidity,Sea Level PressureIn,VisibilityMPH,Wind Direction,Wind SpeedMPH,Gust SpeedMPH,PrecipitationIn,Events,Conditions,WindDirDegrees,DateUTC
1:56 AM,42.1,36.0,79,29.72,10.0,Calm,Calm,-,N/A,,Mostly Cloudy,0,2013-02-28 06:56:00
2:56 AM,39.0,36.0,89,29.71,10.0,Calm,Calm,-,N/A,,Clear,0,2013-02-28 07:56:00
3:56 AM,37.0,35.1,93,29.70,10.0,Calm,Calm,-,N/A,,Clear,0,2013-02-28 08:56:00
4:56 AM,35.1,33.1,92,29.72,9.0,Variable,3.5,-,N/A,,Clear,0,2013-02-28 09:56:00
5:56 AM,37.9,34.0,86,29.74,10.0,Calm,Calm,-,N/A,,Overcast,0,2013-02-28 10:56:00
6:56 AM,37.9,32.0,79,29.75,10.0,WNW,4.6,-,N/A,,Overcast,300,2013-02-28 11:56:00
7:56 AM,39.9,33.1,77,29.76,10.0,Calm,Calm,-,N/A,,Overcast,0,2013-02-28 12:56:00
8:56 AM,42.1,32.0,67,29.77,10.0,Calm,Calm,-,N/A,,Overcast,0,2013-02-28 13:56:00
9:56 AM,44.1,30.9,60,29.77,10.0,Variable,3.5,-,N/A,,Overcast,0,2013-02-28 14:56:00
10:56 AM,46.0,28.9,51,29.77,10.0,Variable,6.9,-,N/A,,Overcast,0,2013-02-28 15:56:00
11:56 AM,46.0,26.1,46,29.77,10.0,West,9.2,-,N/A,,Overcast,260,2013-02-28 16:56:00
12:56 PM,46.9,26.1,44,29.75,10.0,Variable,5.8,19.6,N/A,,Overcast,0,2013-02-28 17:56:00
1:56 PM,46.9,26.1,44,29.74,10.0,West,8.1,-,N/A,,Overcast,270,2013-02-28 18:56:00
2:56 PM,46.9,23.0,39,29.75,10.0,West,4.6,20.7,N/A,,Mostly Cloudy,270,2013-02-28 19:56:00
3:56 PM,46.9,23.0,39,29.76,10.0,West,11.5,20.7,N/A,,Overcast,280,2013-02-28 20:56:00
4:56 PM,46.9,24.1,41,29.77,10.0,West,9.2,17.3,N/A,,Overcast,280,2013-02-28 21:56:00
5:56 PM,45.0,23.0,42,29.78,10.0,West,5.8,-,N/A,,Scattered Clouds,280,2013-02-28 22:56:00
7:56 PM,42.1,24.1,49,29.83,10.0,Variable,4.6,-,N/A,,Clear,0,2013-03-01 00:56:00
8:56 PM,39.0,24.1,55,29.83,10.0,Calm,Calm,-,N/A,,Clear,0,2013-03-01 01:56:00
9:56 PM,36.0,25.0,64,29.86,10.0,Calm,Calm,-,N/A,,Clear,0,2013-03-01 02:56:00
10:56 PM,37.0,25.0,62,29.85,10.0,WNW,4.6,-,N/A,,Clear,300,2013-03-01 03:56:00
11:56 PM,35.1,25.0,67,29.85,10.0,Calm,Calm,-,N/A,,Clear,0,2013-03-01 04:56:00